Back to catalog

STARLINK-4550

AliveCommunicationsVLEO
NORAD 53570·PAYLOAD·🇺🇸 United States

Launched Aug 19, 2022 from Cape Canaveral Space Force Station

Loading…

Next Passes (next 24 hours)

TLE

FreshSource: CelesTrak SupGP

Epoch: Sep 14, 2026, 21:35 UTC

1 53570C 22101AV  26257.89979167  .00017264  00000+0  52394-3 0  2576
2 53570  53.1557 270.0759 0001196  95.9808 112.6220 15.33536066    17

Track STARLINK-4550 in real time with AllMySat

Download on the App Store